Alturas, CA

9:45 AM PDT on April 23, 2018 (GMT -0700)
Alturas Municipal

Weather History for KAAT - March, 2013

Change the Weather History Date:

Wednesday, March 6, 2013

  Actual Average Record
Temperature  
Mean Temperature 31 °F 37 °F  
Max Temperature 41 °F 50 °F 78 °F (1941)
Min Temperature 21 °F 24 °F -7 °F (1917)
Degree Days  
Heating Degree Days 34 28  
Month to date heating degree days 154 168  
Since 1 July heating degree days 4740 5035  
Cooling Degree Days 0 0  
Month to date cooling degree days 0 0  
Year to date cooling degree days 0 0  
Moisture  
Dew Point 27 °F    
Average Humidity 77    
Maximum Humidity 100    
Minimum Humidity 54    
Precipitation  
Precipitation 0.07 in 0.04 in 0.47 in (1950)
Month to date precipitation 0.11 0.28  
Year to date precipitation 0.84 3.38  
Sea Level Pressure  
Sea Level Pressure 29.80 in    
Wind  
Wind Speed 15 mph (SW)    
Max Wind Speed 37 mph    
Max Gust Speed 49 mph    
Visibility 5 miles    
Events Fog , Snow    
T = Trace of Precipitation, MM = Missing Value Source: NWS Daily Summary

Daily Weather History Graph

Daily Weather History Graph

Search for Another Location

Airport or City:

Astronomy

Mar. 06, 2013 Rise Set
Actual Time 6:28 AM PST 5:59 PM PST
Civil Twilight 6:00 AM PST 6:26 PM PST
Nautical Twilight 5:28 AM PST 6:58 PM PST
Astronomical Twilight 4:56 AM PST 7:31 PM PST
Moon 2:45 AM PST (3/6) 12:43 PM PST (3/6)
Length of Visible Light 12h 26m
Length of Day
11h 30m
Waning Crescent, 29% of the Moon is Illuminated
Mar 6
Waning Crescent
Mar 11
New
Mar 19
First Quarter
Mar 27
Full
Apr 2
Last Quarter

Hourly Weather History & Observations

Time (PST) Temp. Windchill Dew Point Humidity Pressure Visibility Wind Dir Wind Speed Gust Speed Precip Events Conditions
12:55 AM 39.0 °F 29.9 °F 28.9 °F 67% 29.64 in 10.0 mi South 17.3 mph - N/A   Overcast
1:55 AM 37.9 °F 28.2 °F 28.0 °F 68% 29.60 in 10.0 mi SSE 18.4 mph 29.9 mph N/A   Mostly Cloudy
2:55 AM 37.9 °F 27.6 °F 28.9 °F 70% 29.58 in 10.0 mi South 20.7 mph 31.1 mph N/A   Overcast
3:55 AM 36.0 °F 26.7 °F 28.9 °F 76% 29.57 in 10.0 mi SSE 15.0 mph 21.9 mph N/A   Scattered Clouds
4:44 AM 33.8 °F 21.0 °F 28.4 °F 81% 29.63 in 1.8 mi SW 25.3 mph 48.3 mph 0.00 in Snow Light Snow
4:50 AM 32.0 °F 19.8 °F 28.4 °F 87% 29.64 in 1.0 mi WSW 20.7 mph 33.4 mph 0.00 in Snow Light Snow
4:55 AM 30.9 °F 16.9 °F 28.9 °F 92% 29.64 in 1.0 mi WSW 26.5 mph 34.5 mph 0.01 in Snow Light Snow
4:58 AM 30.2 °F 16.5 °F 28.4 °F 93% 29.65 in 0.8 mi SW 24.2 mph 34.5 mph 0.00 in Snow Light Snow
5:13 AM 30.2 °F 15.9 °F 28.4 °F 93% 29.65 in 0.5 mi SW 26.5 mph 41.4 mph 0.01 in Fog , Snow Snow
5:17 AM 30.2 °F 16.5 °F 28.4 °F 93% 29.64 in 1.0 mi SW 24.2 mph 41.4 mph 0.01 in Snow Light Snow
5:21 AM 30.2 °F 17.4 °F 28.4 °F 93% 29.64 in 2.0 mi SW 20.7 mph 35.7 mph 0.01 in Snow Light Snow
5:28 AM 32.0 °F 19.5 °F 26.6 °F 80% 29.63 in 8.0 mi SW 21.9 mph 29.9 mph 0.01 in Snow Light Snow
5:35 AM 32.0 °F 19.2 °F 26.6 °F 80% 29.63 in 9.0 mi SW 23.0 mph 35.7 mph 0.01 in Snow Light Snow
5:55 AM 33.1 °F 21.2 °F 25.0 °F 72% 29.64 in 10.0 mi SW 20.7 mph 28.8 mph 0.01 in Snow Light Snow
6:55 AM 33.1 °F 23.4 °F 21.9 °F 64% 29.65 in 10.0 mi SSW 13.8 mph - 0.00 in   Mostly Cloudy
7:55 AM 34.0 °F 23.8 °F 23.0 °F 64% 29.67 in 10.0 mi South 16.1 mph 24.2 mph N/A   Clear
8:55 AM 37.0 °F 26.7 °F 24.1 °F 59% 29.67 in 10.0 mi South 19.6 mph 27.6 mph N/A   Clear
9:55 AM 39.0 °F 27.4 °F 25.0 °F 57% 29.70 in 10.0 mi SW 28.8 mph 40.3 mph N/A   Scattered Clouds
10:55 AM 37.0 °F 25.1 °F 24.1 °F 59% 29.76 in 10.0 mi SW 26.5 mph 38.0 mph 0.00 in   Overcast
11:55 AM 37.0 °F 25.9 °F 25.0 °F 62% 29.81 in 10.0 mi WSW 23.0 mph 34.5 mph 0.00 in Snow Light Snow
12:40 PM 33.8 °F 19.4 °F 28.4 °F 81% 29.85 in 2.0 mi West 33.4 mph 43.7 mph 0.00 in Snow Light Snow
12:43 PM 30.2 °F 14.7 °F 26.6 °F 86% 29.85 in 1.0 mi West 32.2 mph 43.7 mph 0.00 in Snow Light Snow
12:50 PM 30.2 °F 17.1 °F 26.6 °F 86% 29.84 in 0.5 mi West 21.9 mph 43.7 mph 0.00 in Fog , Snow Snow
12:55 PM 30.0 °F 16.0 °F 28.0 °F 92% 29.87 in 0.5 mi West 25.3 mph 33.4 mph 0.00 in Fog , Snow Snow
1:09 PM 30.2 °F 17.4 °F 28.4 °F 93% 29.85 in 0.2 mi West 20.7 mph 28.8 mph 0.01 in Fog , Snow Snow
1:33 PM 30.2 °F 18.9 °F 28.4 °F 93% 29.85 in 1.0 mi WSW 16.1 mph 24.2 mph 0.02 in Snow Light Snow
1:39 PM 30.2 °F 20.8 °F 28.4 °F 93% 29.85 in 2.5 mi SW 11.5 mph - 0.02 in Snow Light Snow
1:47 PM 32.0 °F 20.5 °F 28.4 °F 87% 29.86 in 8.0 mi WSW 18.4 mph 34.5 mph 0.02 in Snow Light Snow
1:55 PM 30.0 °F 16.6 °F 27.0 °F 88% 29.91 in 0.8 mi WSW 23.0 mph 40.3 mph 0.02 in Snow Light Snow
2:12 PM 28.4 °F 16.6 °F 26.6 °F 93% 29.88 in 0.2 mi WSW 16.1 mph 24.2 mph 0.01 in Fog , Snow Heavy Snow
2:19 PM 28.4 °F 17.0 °F 26.6 °F 93% 29.88 in 0.2 mi WSW 15.0 mph 24.2 mph 0.02 in Fog , Snow Heavy Snow
2:27 PM 30.2 °F 17.4 °F 26.6 °F 86% 29.88 in 1.0 mi WSW 20.7 mph 26.5 mph 0.02 in Snow Light Snow
2:37 PM 28.4 °F 16.6 °F 28.4 °F 100% 29.88 in 0.5 mi WSW 16.1 mph 23.0 mph 0.03 in Fog , Snow Snow
2:48 PM 30.2 °F 20.8 °F 28.4 °F 93% 29.88 in 1.2 mi WSW 11.5 mph - 0.03 in Snow Light Snow
2:55 PM 30.0 °F 20.0 °F 28.0 °F 92% 29.91 in 3.0 mi WSW 12.7 mph - 0.03 in Snow Light Snow
3:24 PM 30.2 °F 19.3 °F 26.6 °F 86% 29.89 in 5.0 mi SW 15.0 mph - 0.00 in Snow Light Snow
3:55 PM 30.9 °F 19.4 °F 27.0 °F 85% 29.92 in 4.0 mi West 17.3 mph - 0.00 in Snow Light Snow
4:42 PM 30.2 °F 21.3 °F 28.4 °F 93% 29.90 in 10.0 mi SW 10.4 mph - 0.00 in   Mostly Cloudy
4:55 PM 30.9 °F 22.8 °F 27.0 °F 85% 29.95 in 10.0 mi SW 9.2 mph - 0.00 in   Mostly Cloudy
5:09 PM 30.2 °F 21.3 °F 26.6 °F 86% 29.90 in 2.0 mi SW 10.4 mph - 0.00 in Snow Light Snow
5:20 PM 30.2 °F - 28.4 °F 93% 29.90 in 5.0 mi Calm Calm - 0.00 in Snow Light Snow
5:30 PM 28.4 °F - 26.6 °F 93% 29.90 in 9.0 mi Calm Calm - 0.00 in   Scattered Clouds
5:55 PM 28.9 °F - 26.1 °F 89% 29.95 in 10.0 mi Calm Calm - 0.00 in   Partly Cloudy
6:55 PM 25.0 °F - 24.1 °F 96% 29.97 in 10.0 mi North - - N/A   Partly Cloudy
7:55 PM 26.1 °F - 25.0 °F 96% 29.98 in 9.0 mi Calm Calm - N/A   Mostly Cloudy
8:55 PM 27.0 °F - 25.0 °F 92% 29.98 in 8.0 mi Calm Calm - N/A   Overcast
9:55 PM 24.1 °F - 23.0 °F 96% 29.99 in 5.0 mi Calm Calm - N/A   Mostly Cloudy
11:55 PM 26.1 °F 21.9 °F 23.0 °F 88% 29.99 in 10.0 mi SSW 3.5 mph - N/A   Overcast